LVM3 R/B, 66310

Orbit data source: Space-Track

LVM3 R/B, 66310 is space debris in HEO originally from a launch on Sun, 02 Nov 2025 UTC launched from the Sirharikota (SRI). Debris objects in space refer to the collection of defunct objects orbiting the Earth. Examples of debris include non-operational satellites, rocket bodies, and fragments generated from explosions, collisions, or faulty payload assembly.

Loading next visibility...
Identifier
66310, 2025-249A
Orbit
HEO
Country
Flag of ININ / IND
Related business
Manufacturer
ISRO
Mission
Spacecraft
Bus & Motor
C25, CE-20
Mass
4,400 kg wet, 4,400 kg dry
Launch date (UTC)
2025-11-02 (4 months ago)
Launch vehicle
Unknown
Launch site
Sirharikota (SRI)
Object type
Payload
Rocket body
Debris
Shape & HBR
Cyl + 1 Nozzle, 8.0 m
Radar Cross Section
48.836 m²

Expand to show TLE details & history
Last TLE update: 18 hours ago

TLE from 18 hours ago
0 LVM3 R/B
1 66310U 25249A   26061.30680671  .00188524  11906-6  52203-3 0  9990
2 66310  21.3834  89.3249 6586342 305.7519   9.4510  3.29051996  3835
Epoch: 2026-03-02T07:21Z
TLE epoch observation values (Epoch: 2026-03-02T07:21:48.099Z)
Latitude
0.00021°
Longitude
178.84663°
Altitude
1,442.6 km
Speed
9.003 km/s
True Right ascension
05h 57m 35s
True Declination
0° 00' 01"
Sunlit
Object was in daylight at epoch
Visualization orbit readout
Latitude
Unknown
Longitude
Unknown
Altitude
Unknown
Speed
Unknown
Apparent Right ascension
Unknown
Apparent Declination
Unknown
Sunlit
N/A
Visualization observer readout
Local Sidereal Time
05:27:45
Azimuth
Unknown
Elevation
Unknown
Doppler factor
Unknown
Orbital elements
Apogee altitude
25,298.687 km
Perigee altitude
141.314 km
Semi-major axis
19,098.137 km
Eccentricity
0.65863
Inclination
21.3834°
RAAN
89.3249°
Arg. of periapsis
305.7519°
True anomaly
53.91471°
Mean anomaly
9.451°
Eccentric anomaly
25.98479°
Mean motion
0.82235 °/min
Orbital period
437.77 mins
BSTAR
0.00052203
Loading maneuver chart data...
Computing Atmospheric mass density...
Loading historical data...
Loading historical data...
Loading historical data...
Loading historical data...
Loading historical data...
Loading historical data...
Loading historical data...
Other satellites on launch #249 in the year 2025 (2025-11-02 UTC)

Documentation

Showing up to 5 results
|